Time,TemperatureF,DewpointF,PressureIn,WindDirection,WindDirectionDegrees,WindSpeedMPH,WindSpeedGustMPH,Humidity,HourlyPrecipIn,Conditions,Clouds,dailyrainin,SoftwareType,DateUTC
2013-08-30 00:04:00,77.0,70.0,29.95,North,-999,-999.0,-999.0,78,-99.99,,,-99.99,,2013-08-30 05:04:00,
2013-08-30 00:12:00,77.0,70.0,29.95,North,-999,-999.0,-999.0,78,-99.99,,,-99.99,,2013-08-30 05:12:00,
2013-08-30 00:23:00,77.0,70.0,29.95,North,-999,-999.0,-999.0,78,-99.99,,,-99.99,,2013-08-30 05:23:00,
2013-08-30 00:42:00,75.0,70.0,29.96,North,-999,-999.0,-999.0,83,-99.99,,,-99.99,,2013-08-30 05:42:00,
2013-08-30 01:12:00,73.0,68.0,29.96,North,-999,-999.0,-999.0,83,-99.99,,,-99.99,,2013-08-30 06:12:00,
2013-08-30 01:22:00,73.0,68.0,29.97,North,-999,-999.0,-999.0,83,-99.99,,,-99.99,,2013-08-30 06:22:00,
2013-08-30 01:42:00,73.0,68.0,29.97,North,-999,-999.0,-999.0,83,-99.99,,,-99.99,,2013-08-30 06:42:00,
2013-08-30 01:53:00,72.0,66.0,29.97,North,-999,-999.0,-999.0,83,-99.99,,,-99.99,,2013-08-30 06:53:00,
2013-08-30 02:02:00,72.0,66.0,29.97,North,-999,-999.0,-999.0,83,-99.99,,,-99.99,,2013-08-30 07:02:00,
2013-08-30 02:12:00,72.0,66.0,29.97,North,-999,-999.0,-999.0,83,-99.99,,,-99.99,,2013-08-30 07:12:00,
2013-08-30 02:21:00,72.0,66.0,29.97,North,-999,-999.0,-999.0,83,-99.99,,,-99.99,,2013-08-30 07:21:00,
2013-08-30 02:44:00,70.0,66.0,29.97,North,-999,-999.0,-999.0,88,-99.99,,,-99.99,,2013-08-30 07:44:00,
2013-08-30 03:11:00,68.0,64.0,29.97,North,-999,-999.0,-999.0,88,-99.99,,,-99.99,,2013-08-30 08:11:00,
2013-08-30 03:22:00,68.0,64.0,29.97,North,-999,-999.0,-999.0,88,-99.99,,,-99.99,,2013-08-30 08:22:00,
2013-08-30 03:43:00,66.0,64.0,29.97,North,-999,-999.0,-999.0,93,-99.99,,,-99.99,,2013-08-30 08:43:00,
2013-08-30 03:52:00,66.0,64.0,29.97,North,-999,-999.0,-999.0,93,-99.99,,,-99.99,,2013-08-30 08:52:00,
2013-08-30 04:01:00,66.0,64.0,29.97,North,-999,-999.0,-999.0,93,-99.99,,,-99.99,,2013-08-30 09:01:00,
2013-08-30 04:12:00,66.0,64.0,29.97,North,-999,-999.0,-999.0,93,-99.99,,,-99.99,,2013-08-30 09:12:00,
2013-08-30 04:22:00,66.0,64.0,29.97,North,-999,-999.0,-999.0,93,-99.99,,,-99.99,,2013-08-30 09:22:00,
2013-08-30 04:44:00,66.0,64.0,29.97,North,-999,-999.0,-999.0,93,-99.99,,,-99.99,,2013-08-30 09:44:00,
2013-08-30 04:53:00,66.0,64.0,29.97,North,-999,-999.0,-999.0,93,-99.99,,,-99.99,,2013-08-30 09:53:00,
2013-08-30 05:03:00,66.0,64.0,29.97,North,-999,-999.0,-999.0,93,-99.99,,,-99.99,,2013-08-30 10:03:00,
2013-08-30 05:12:00,66.0,64.0,29.97,North,-999,-999.0,-999.0,93,-99.99,,,-99.99,,2013-08-30 10:12:00,
2013-08-30 05:23:00,66.0,64.0,29.97,North,-999,-999.0,-999.0,93,-99.99,,,-99.99,,2013-08-30 10:23:00,
2013-08-30 05:43:00,66.0,64.0,29.98,North,-999,-999.0,-999.0,93,-99.99,,,-99.99,,2013-08-30 10:43:00,
2013-08-30 05:53:00,66.0,64.0,29.98,North,-999,-999.0,-999.0,93,-99.99,,,-99.99,,2013-08-30 10:53:00,
2013-08-30 06:03:00,66.0,64.0,29.98,North,-999,-999.0,-999.0,93,-99.99,,,-99.99,,2013-08-30 11:03:00,
2013-08-30 06:12:00,66.0,64.0,29.98,North,-999,-999.0,-999.0,93,-99.99,,,-99.99,,2013-08-30 11:12:00,
2013-08-30 06:22:00,66.0,64.0,29.98,North,-999,-999.0,-999.0,93,-99.99,,,-99.99,,2013-08-30 11:22:00,
2013-08-30 06:42:00,66.0,64.0,29.98,North,-999,-999.0,-999.0,93,-99.99,,,-99.99,,2013-08-30 11:42:00,
2013-08-30 06:52:00,66.0,66.0,29.98,North,-999,-999.0,-999.0,100,-99.99,,,-99.99,,2013-08-30 11:52:00,
2013-08-30 07:01:00,66.0,66.0,29.98,North,-999,-999.0,-999.0,100,-99.99,,,-99.99,,2013-08-30 12:01:00,
2013-08-30 07:12:00,66.0,66.0,29.98,North,-999,-999.0,-999.0,100,-99.99,,,-99.99,,2013-08-30 12:12:00,
2013-08-30 07:42:00,68.0,66.0,29.99,North,-999,-999.0,-999.0,93,-99.99,,,-99.99,,2013-08-30 12:42:00,
2013-08-30 07:52:00,68.0,66.0,30.00,North,-999,-999.0,-999.0,93,-99.99,,,-99.99,,2013-08-30 12:52:00,
2013-08-30 08:02:00,68.0,66.0,30.00,North,-999,-999.0,-999.0,93,-99.99,,,-99.99,,2013-08-30 13:02:00,
2013-08-30 08:21:00,68.0,66.0,30.00,North,-999,-999.0,-999.0,93,-99.99,,,-99.99,,2013-08-30 13:21:00,
2013-08-30 08:42:00,68.0,66.0,30.01,North,-999,-999.0,-999.0,93,-99.99,,,-99.99,,2013-08-30 13:42:00,
2013-08-30 08:52:00,68.0,66.0,30.02,North,-999,-999.0,-999.0,93,-99.99,,,-99.99,,2013-08-30 13:52:00,
2013-08-30 09:02:00,68.0,66.0,30.02,North,-999,-999.0,-999.0,93,-99.99,,,-99.99,,2013-08-30 14:02:00,
2013-08-30 09:21:00,68.0,66.0,30.02,North,-999,-999.0,-999.0,93,-99.99,,,-99.99,,2013-08-30 14:21:00,
2013-08-30 09:42:00,70.0,68.0,30.02,North,-999,-999.0,-999.0,94,-99.99,,,-99.99,,2013-08-30 14:42:00,
2013-08-30 10:22:00,70.0,66.0,30.03,North,-999,-999.0,-999.0,88,-99.99,,,-99.99,,2013-08-30 15:22:00,
2013-08-30 10:43:00,70.0,66.0,30.03,North,-999,-999.0,-999.0,88,-99.99,,,-99.99,,2013-08-30 15:43:00,
2013-08-30 11:25:00,72.0,66.0,30.03,North,-999,-999.0,-999.0,83,-99.99,,,-99.99,,2013-08-30 16:25:00,
2013-08-30 11:43:00,73.0,66.0,30.03,North,-999,-999.0,-999.0,78,-99.99,,,-99.99,,2013-08-30 16:43:00,
2013-08-30 11:53:00,73.0,66.0,30.03,North,-999,-999.0,-999.0,78,-99.99,,,-99.99,,2013-08-30 16:53:00,
2013-08-30 12:03:00,73.0,66.0,30.03,North,-999,-999.0,-999.0,78,-99.99,,,-99.99,,2013-08-30 17:03:00,
2013-08-30 12:23:00,75.0,66.0,30.02,North,-999,-999.0,-999.0,73,-99.99,,,-99.99,,2013-08-30 17:23:00,
2013-08-30 12:42:00,77.0,66.0,30.02,North,-999,-999.0,-999.0,69,-99.99,,,-99.99,,2013-08-30 17:42:00,
2013-08-30 13:12:00,79.0,66.0,30.01,North,-999,-999.0,-999.0,65,-99.99,,,-99.99,,2013-08-30 18:12:00,
2013-08-30 13:22:00,79.0,66.0,30.01,North,-999,-999.0,-999.0,65,-99.99,,,-99.99,,2013-08-30 18:22:00,
2013-08-30 13:42:00,82.0,70.0,30.01,North,-999,-999.0,-999.0,65,-99.99,,,-99.99,,2013-08-30 18:42:00,
2013-08-30 14:12:00,82.0,66.0,30.00,North,-999,-999.0,-999.0,58,-99.99,,,-99.99,,2013-08-30 19:12:00,
2013-08-30 14:22:00,82.0,66.0,30.00,North,-999,-999.0,-999.0,58,-99.99,,,-99.99,,2013-08-30 19:22:00,
2013-08-30 14:42:00,82.0,66.0,30.00,North,-999,-999.0,-999.0,58,-99.99,,,-99.99,,2013-08-30 19:42:00,
2013-08-30 15:11:00,84.0,66.0,30.00,North,-999,-999.0,-999.0,54,-99.99,,,-99.99,,2013-08-30 20:11:00,
2013-08-30 15:22:00,84.0,66.0,30.00,North,-999,-999.0,-999.0,54,-99.99,,,-99.99,,2013-08-30 20:22:00,
2013-08-30 15:32:00,84.0,66.0,30.00,North,-999,-999.0,-999.0,54,-99.99,,,-99.99,,2013-08-30 20:32:00,
2013-08-30 16:11:00,84.0,66.0,29.98,North,-999,-999.0,-999.0,54,-99.99,,,-99.99,,2013-08-30 21:11:00,
2013-08-30 16:22:00,84.0,66.0,29.98,North,-999,-999.0,-999.0,54,-99.99,,,-99.99,,2013-08-30 21:22:00,
2013-08-30 16:44:00,86.0,66.0,29.97,North,-999,-999.0,-999.0,51,-99.99,,,-99.99,,2013-08-30 21:44:00,
2013-08-30 17:13:00,86.0,64.0,29.97,North,-999,-999.0,-999.0,48,-99.99,,,-99.99,,2013-08-30 22:13:00,
2013-08-30 17:24:00,86.0,64.0,29.97,North,-999,-999.0,-999.0,48,-99.99,,,-99.99,,2013-08-30 22:24:00,
2013-08-30 17:43:00,84.0,64.0,29.96,North,-999,-999.0,-999.0,51,-99.99,,,-99.99,,2013-08-30 22:43:00,
2013-08-30 18:12:00,84.0,64.0,29.95,North,-999,-999.0,-999.0,51,-99.99,,,-99.99,,2013-08-30 23:12:00,
2013-08-30 18:42:00,84.0,66.0,29.95,North,-999,-999.0,-999.0,54,-99.99,,,-99.99,,2013-08-30 23:42:00,
2013-08-30 19:22:00,82.0,66.0,29.94,North,-999,-999.0,-999.0,58,-99.99,,,-99.99,,2013-08-31 00:22:00,
2013-08-30 19:42:00,82.0,66.0,29.94,North,-999,-999.0,-999.0,58,-99.99,,,-99.99,,2013-08-31 00:42:00,
2013-08-30 19:52:00,81.0,68.0,29.94,North,-999,-999.0,-999.0,65,-99.99,,,-99.99,,2013-08-31 00:52:00,
2013-08-30 20:01:00,81.0,68.0,29.94,North,-999,-999.0,-999.0,65,-99.99,,,-99.99,,2013-08-31 01:01:00,
2013-08-30 20:22:00,77.0,66.0,29.93,North,-999,-999.0,-999.0,69,-99.99,,,-99.99,,2013-08-31 01:22:00,
2013-08-30 20:42:00,75.0,64.0,29.93,North,-999,-999.0,-999.0,69,-99.99,,,-99.99,,2013-08-31 01:42:00,
2013-08-30 20:52:00,73.0,64.0,29.93,North,-999,-999.0,-999.0,73,-99.99,,,-99.99,,2013-08-31 01:52:00,
2013-08-30 21:02:00,73.0,64.0,29.93,North,-999,-999.0,-999.0,73,-99.99,,,-99.99,,2013-08-31 02:02:00,
2013-08-30 21:22:00,72.0,64.0,29.93,North,-999,-999.0,-999.0,78,-99.99,,,-99.99,,2013-08-31 02:22:00,
2013-08-30 21:32:00,72.0,64.0,29.93,North,-999,-999.0,-999.0,78,-99.99,,,-99.99,,2013-08-31 02:32:00,
2013-08-30 21:42:00,72.0,64.0,29.93,North,-999,-999.0,-999.0,78,-99.99,,,-99.99,,2013-08-31 02:42:00,
2013-08-30 21:52:00,72.0,66.0,29.93,North,-999,-999.0,-999.0,83,-99.99,,,-99.99,,2013-08-31 02:52:00,
2013-08-30 22:02:00,72.0,66.0,29.93,North,-999,-999.0,-999.0,83,-99.99,,,-99.99,,2013-08-31 03:02:00,
2013-08-30 22:22:00,70.0,64.0,29.93,North,-999,-999.0,-999.0,82,-99.99,,,-99.99,,2013-08-31 03:22:00,
2013-08-30 22:44:00,70.0,64.0,29.93,North,-999,-999.0,-999.0,82,-99.99,,,-99.99,,2013-08-31 03:44:00,
2013-08-30 22:54:00,68.0,64.0,29.93,North,-999,-999.0,-999.0,88,-99.99,,,-99.99,,2013-08-31 03:54:00,
2013-08-30 23:05:00,68.0,64.0,29.93,North,-999,-999.0,-999.0,88,-99.99,,,-99.99,,2013-08-31 04:05:00,
2013-08-30 23:14:00,68.0,64.0,29.93,North,-999,-999.0,-999.0,88,-99.99,,,-99.99,,2013-08-31 04:14:00,
2013-08-30 23:24:00,68.0,64.0,29.93,North,-999,-999.0,-999.0,88,-99.99,,,-99.99,,2013-08-31 04:24:00,
2013-08-30 23:44:00,66.0,63.0,29.92,North,-999,-999.0,-999.0,88,-99.99,,,-99.99,,2013-08-31 04:44:00,